Lær å fly hos oss!

Oslo Flyveklubb har i mange år utdannet flygere til privatflygersetifikat PPL(A). Skolen har godkjenning for å drive utdanning til teoriundervisning til PPL(A), privatflygersertifikat PPL (A) og mørkeflyging.

Gi bort en flytur i gave

På en introduksjonstur vil kandidaten være med på forberedelser til, og gjennomføring av en flytur på en times varighet med en av våre instruktører.

Hvor vi holder til?

Flyplassen ligger i Lillestrøm 10 minutter med tog fra Oslo. Følg storgata fra Lillestrøms sentrum så vill man se plassen på venstre side.
Metar/TAF Gardermoen:

ENGM 281250Z VRB06KT 8000 TSRA FEW028CB SCT056 OVC069 16/15 Q1005 TEMPO 4000 SHRA

TAF ENGM 281100Z 2812/2912 VRB05KT 9999 -SHRA FEW010 BKN020 TEMPO 2812/2818 19010KT 2000 +SHRA BR BKN006 SCT020CB PROB40 TEMPO 2812/2818 TS TEMPO 2818/2901 4000 SHRA FEW020CB BKN030 TEMPO 2901/2912 2000 SHRA BR BKN004 SCT015CB PROB40 TEMPO 2904/2912 TS